Time,TemperatureF,DewpointF,PressureIn,WindDirection,WindDirectionDegrees,WindSpeedMPH,WindSpeedGustMPH,Humidity,HourlyPrecipIn,Conditions,Clouds,dailyrainin,SoftwareType,DateUTC
2013-08-24 00:09:00,53.9,48.0,30.17,ENE,64,1.0,2.0,81,0.00,,,0.00,weatherlink.com 1.10,2013-08-24 04:09:00,
2013-08-24 00:24:00,53.6,48.0,30.17,North,1,0.0,2.0,82,0.00,,,0.00,weatherlink.com 1.10,2013-08-24 04:24:00,
2013-08-24 00:40:00,53.3,48.0,30.18,SW,233,0.0,1.0,83,0.00,,,0.00,weatherlink.com 1.10,2013-08-24 04:40:00,
2013-08-24 00:54:00,53.1,48.0,30.18,East,94,0.0,1.0,84,0.00,,,0.00,weatherlink.com 1.10,2013-08-24 04:54:00,
2013-08-24 01:09:00,52.4,48.0,30.18,East,94,0.0,33.0,85,0.00,,,0.00,weatherlink.com 1.10,2013-08-24 05:09:00,
2013-08-24 01:24:00,51.9,48.0,30.18,East,94,0.0,1.0,87,0.00,,,0.00,weatherlink.com 1.10,2013-08-24 05:24:00,
2013-08-24 01:39:00,51.2,48.0,30.19,East,93,0.0,1.0,88,0.00,,,0.00,weatherlink.com 1.10,2013-08-24 05:39:00,
2013-08-24 01:54:00,50.7,48.0,30.19,East,94,0.0,0.0,90,0.00,,,0.00,weatherlink.com 1.10,2013-08-24 05:54:00,
2013-08-24 02:09:00,50.5,48.0,30.19,East,93,0.0,0.0,91,0.00,,,0.00,weatherlink.com 1.10,2013-08-24 06:09:00,
2013-08-24 02:24:00,50.2,48.0,30.20,East,94,0.0,0.0,91,0.00,,,0.00,weatherlink.com 1.10,2013-08-24 06:24:00,
2013-08-24 02:39:00,49.9,47.0,30.20,East,94,0.0,0.0,91,0.00,,,0.00,weatherlink.com 1.10,2013-08-24 06:39:00,
2013-08-24 02:54:00,49.8,48.0,30.21,East,94,0.0,0.0,92,0.00,,,0.00,weatherlink.com 1.10,2013-08-24 06:54:00,
2013-08-24 03:09:00,49.5,47.0,30.21,East,94,0.0,0.0,92,0.00,,,0.00,weatherlink.com 1.10,2013-08-24 07:09:00,
2013-08-24 03:24:00,49.3,47.0,30.22,East,94,0.0,0.0,93,0.00,,,0.00,weatherlink.com 1.10,2013-08-24 07:24:00,
2013-08-24 03:39:00,49.3,47.0,30.23,East,94,0.0,0.0,93,0.00,,,0.00,weatherlink.com 1.10,2013-08-24 07:39:00,
2013-08-24 03:54:00,49.2,48.0,30.23,East,94,0.0,0.0,94,0.00,,,0.00,weatherlink.com 1.10,2013-08-24 07:54:00,
2013-08-24 04:09:00,48.9,47.0,30.24,East,94,0.0,0.0,94,0.00,,,0.00,weatherlink.com 1.10,2013-08-24 08:09:00,
2013-08-24 04:24:00,48.5,47.0,30.24,East,94,0.0,0.0,94,0.00,,,0.00,weatherlink.com 1.10,2013-08-24 08:24:00,
2013-08-24 04:39:00,48.3,46.0,30.25,East,94,0.0,0.0,93,0.00,,,0.00,weatherlink.com 1.10,2013-08-24 08:39:00,
2013-08-24 04:55:00,48.2,46.0,30.25,East,93,0.0,0.0,90,0.00,,,0.00,weatherlink.com 1.10,2013-08-24 08:55:00,
2013-08-24 05:10:00,48.0,45.0,30.26,East,94,0.0,0.0,90,0.00,,,0.00,weatherlink.com 1.10,2013-08-24 09:10:00,
2013-08-24 05:25:00,47.9,45.0,30.27,East,93,0.0,0.0,90,0.00,,,0.00,weatherlink.com 1.10,2013-08-24 09:25:00,
2013-08-24 05:40:00,48.0,46.0,30.27,East,93,0.0,0.0,91,0.00,,,0.00,weatherlink.com 1.10,2013-08-24 09:40:00,
2013-08-24 05:55:00,47.9,46.0,30.28,East,93,0.0,0.0,92,0.00,,,0.00,weatherlink.com 1.10,2013-08-24 09:55:00,
2013-08-24 06:10:00,47.8,46.0,30.29,East,94,0.0,0.0,93,0.00,,,0.00,weatherlink.com 1.10,2013-08-24 10:10:00,
2013-08-24 06:25:00,47.7,46.0,30.30,East,93,0.0,0.0,94,0.00,,,0.00,weatherlink.com 1.10,2013-08-24 10:25:00,
2013-08-24 06:40:00,47.7,46.0,30.30,East,93,0.0,0.0,95,0.00,,,0.00,weatherlink.com 1.10,2013-08-24 10:40:00,
2013-08-24 06:55:00,47.6,46.0,30.30,East,93,0.0,0.0,95,0.00,,,0.00,weatherlink.com 1.10,2013-08-24 10:55:00,
2013-08-24 07:10:00,47.5,46.0,30.31,East,94,0.0,0.0,95,0.00,,,0.00,weatherlink.com 1.10,2013-08-24 11:10:00,
2013-08-24 07:25:00,47.7,46.0,30.32,East,93,0.0,0.0,95,0.00,,,0.00,weatherlink.com 1.10,2013-08-24 11:25:00,
2013-08-24 07:40:00,48.3,47.0,30.32,East,94,0.0,0.0,95,0.00,,,0.00,weatherlink.com 1.10,2013-08-24 11:40:00,
2013-08-24 07:55:00,49.2,48.0,30.33,East,94,0.0,0.0,94,0.00,,,0.00,weatherlink.com 1.10,2013-08-24 11:55:00,
2013-08-24 08:10:00,50.1,48.0,30.33,East,79,0.0,1.0,93,0.00,,,0.00,weatherlink.com 1.10,2013-08-24 12:10:00,
2013-08-24 08:25:00,51.4,49.0,30.34,North,4,0.0,1.0,91,0.00,,,0.00,weatherlink.com 1.10,2013-08-24 12:25:00,
2013-08-24 08:40:00,52.6,50.0,30.34,NNW,331,0.0,2.0,90,0.00,,,0.00,weatherlink.com 1.10,2013-08-24 12:40:00,
2013-08-24 08:55:00,53.7,50.0,30.34,West,264,1.0,80.0,88,0.00,,,0.00,weatherlink.com 1.10,2013-08-24 12:55:00,
2013-08-24 09:10:00,54.9,50.0,30.34,NNW,331,0.0,4.0,82,0.00,,,0.00,weatherlink.com 1.10,2013-08-24 13:10:00,
2013-08-24 09:25:00,56.1,49.0,30.34,NW,312,1.0,4.0,78,0.00,,,0.00,weatherlink.com 1.10,2013-08-24 13:25:00,
2013-08-24 09:40:00,57.3,51.0,30.35,West,264,0.0,2.0,80,0.00,,,0.00,weatherlink.com 1.10,2013-08-24 13:40:00,
2013-08-24 09:55:00,58.3,51.0,30.34,NNW,329,1.0,2.0,77,0.00,,,0.00,weatherlink.com 1.10,2013-08-24 13:55:00,
2013-08-24 10:10:00,59.6,52.0,30.34,West,262,0.0,3.0,76,0.00,,,0.00,weatherlink.com 1.10,2013-08-24 14:10:00,
2013-08-24 10:25:00,60.8,52.0,30.34,North,355,0.0,2.0,74,0.00,,,0.00,weatherlink.com 1.10,2013-08-24 14:25:00,
2013-08-24 10:41:00,61.9,51.0,30.34,WNW,283,1.0,2.0,68,0.00,,,0.00,weatherlink.com 1.10,2013-08-24 14:41:00,
2013-08-24 10:56:00,63.1,50.0,30.34,West,274,1.0,3.0,63,0.00,,,0.00,weatherlink.com 1.10,2013-08-24 14:56:00,
2013-08-24 11:11:00,64.1,50.0,30.34,NW,319,2.0,3.0,60,0.00,,,0.00,weatherlink.com 1.10,2013-08-24 15:11:00,
2013-08-24 11:26:00,65.5,49.0,30.34,West,264,0.0,2.0,55,0.00,,,0.00,weatherlink.com 1.10,2013-08-24 15:26:00,
2013-08-24 11:41:00,66.2,51.0,30.34,SE,142,0.0,2.0,59,0.00,,,0.00,weatherlink.com 1.10,2013-08-24 15:41:00,
2013-08-24 11:56:00,67.3,51.0,30.34,North,357,2.0,4.0,56,0.00,,,0.00,weatherlink.com 1.10,2013-08-24 15:56:00,
2013-08-24 12:11:00,67.1,50.0,30.33,West,280,1.0,5.0,55,0.00,,,0.00,weatherlink.com 1.10,2013-08-24 16:11:00,
2013-08-24 12:26:00,67.2,49.0,30.33,WSW,253,5.0,6.0,53,0.00,,,0.00,weatherlink.com 1.10,2013-08-24 16:26:00,
2013-08-24 12:41:00,67.4,50.0,30.33,ESE,103,1.0,8.0,54,0.00,,,0.00,weatherlink.com 1.10,2013-08-24 16:41:00,
2013-08-24 12:56:00,68.8,49.0,30.33,North,350,5.0,6.0,49,0.00,,,0.00,weatherlink.com 1.10,2013-08-24 16:56:00,
2013-08-24 13:11:00,69.1,46.0,30.33,ENE,68,2.0,6.0,44,0.00,,,0.00,weatherlink.com 1.10,2013-08-24 17:11:00,
2013-08-24 13:26:00,69.3,47.0,30.32,North,356,5.0,7.0,45,0.00,,,0.00,weatherlink.com 1.10,2013-08-24 17:26:00,
2013-08-24 13:41:00,69.6,47.0,30.32,WNW,285,1.0,7.0,45,0.00,,,0.00,weatherlink.com 1.10,2013-08-24 17:41:00,
2013-08-24 13:56:00,70.3,47.0,30.32,NNW,338,4.0,13.0,44,0.00,,,0.00,weatherlink.com 1.10,2013-08-24 17:56:00,
2013-08-24 14:11:00,71.4,49.0,30.32,NNW,330,6.0,6.0,45,0.00,,,0.00,weatherlink.com 1.10,2013-08-24 18:11:00,
2013-08-24 14:26:00,70.1,46.0,30.32,North,358,3.0,5.0,43,0.00,,,0.00,weatherlink.com 1.10,2013-08-24 18:26:00,
2013-08-24 14:41:00,71.0,47.0,30.32,WSW,242,4.0,5.0,43,0.00,,,0.00,weatherlink.com 1.10,2013-08-24 18:41:00,
2013-08-24 14:56:00,70.7,46.0,30.31,WNW,300,4.0,214.0,42,0.00,,,0.00,weatherlink.com 1.10,2013-08-24 18:56:00,
2013-08-24 15:11:00,71.1,47.0,30.31,NNW,328,5.0,6.0,43,0.00,,,0.00,weatherlink.com 1.10,2013-08-24 19:11:00,
2013-08-24 15:26:00,71.3,48.0,30.31,West,281,3.0,7.0,44,0.00,,,0.00,weatherlink.com 1.10,2013-08-24 19:26:00,
2013-08-24 15:41:00,72.7,52.0,30.31,WNW,291,4.0,6.0,48,0.00,,,0.00,weatherlink.com 1.10,2013-08-24 19:41:00,
2013-08-24 15:56:00,72.7,44.0,30.31,SW,222,2.0,7.0,36,0.00,,,0.00,weatherlink.com 1.10,2013-08-24 19:56:00,
2013-08-24 16:11:00,73.1,46.0,30.31,SE,131,0.0,132.0,38,0.00,,,0.00,weatherlink.com 1.10,2013-08-24 20:11:00,
2013-08-24 16:26:00,72.6,49.0,30.31,SSW,200,1.0,6.0,43,0.00,,,0.00,weatherlink.com 1.10,2013-08-24 20:26:00,
2013-08-24 16:41:00,72.9,47.0,30.31,South,191,1.0,7.0,40,0.00,,,0.00,weatherlink.com 1.10,2013-08-24 20:41:00,
2013-08-24 16:56:00,74.0,47.0,30.31,SSE,148,0.0,5.0,39,0.00,,,0.00,weatherlink.com 1.10,2013-08-24 20:56:00,
2013-08-24 17:11:00,73.7,47.0,30.31,NW,307,0.0,4.0,39,0.00,,,0.00,weatherlink.com 1.10,2013-08-24 21:11:00,
2013-08-24 17:26:00,74.1,44.0,30.30,WNW,285,1.0,37.0,34,0.00,,,0.00,weatherlink.com 1.10,2013-08-24 21:26:00,
2013-08-24 17:41:00,73.1,42.0,30.30,West,259,0.0,5.0,33,0.00,,,0.00,weatherlink.com 1.10,2013-08-24 21:41:00,
2013-08-24 17:56:00,72.1,47.0,30.30,NNW,328,0.0,2.0,41,0.00,,,0.00,weatherlink.com 1.10,2013-08-24 21:56:00,
2013-08-24 18:11:00,72.1,48.0,30.30,NE,43,0.0,2.0,42,0.00,,,0.00,weatherlink.com 1.10,2013-08-24 22:11:00,
2013-08-24 18:26:00,73.1,50.0,30.31,NE,43,0.0,0.0,44,0.00,,,0.00,weatherlink.com 1.10,2013-08-24 22:26:00,
2013-08-24 18:41:00,71.4,48.0,30.31,NE,43,0.0,0.0,44,0.00,,,0.00,weatherlink.com 1.10,2013-08-24 22:41:00,
2013-08-24 18:56:00,68.4,49.0,30.30,NE,43,0.0,0.0,51,0.00,,,0.00,weatherlink.com 1.10,2013-08-24 22:56:00,
2013-08-24 19:12:00,65.9,50.0,30.31,NE,43,0.0,0.0,57,0.00,,,0.00,weatherlink.com 1.10,2013-08-24 23:12:00,
2013-08-24 19:27:00,63.8,51.0,30.31,NE,43,0.0,0.0,64,0.00,,,0.00,weatherlink.com 1.10,2013-08-24 23:27:00,
2013-08-24 19:42:00,62.0,50.0,30.32,NE,43,0.0,0.0,64,0.00,,,0.00,weatherlink.com 1.10,2013-08-24 23:42:00,
2013-08-24 19:57:00,60.7,48.0,30.32,NE,44,0.0,0.0,64,0.00,,,0.00,weatherlink.com 1.10,2013-08-24 23:57:00,
2013-08-24 20:12:00,60.0,48.0,30.32,NE,43,0.0,0.0,65,0.00,,,0.00,weatherlink.com 1.10,2013-08-25 00:12:00,
2013-08-24 20:27:00,59.9,48.0,30.33,NE,43,0.0,1.0,66,0.00,,,0.00,weatherlink.com 1.10,2013-08-25 00:27:00,
2013-08-24 20:42:00,59.6,47.0,30.33,NE,43,0.0,1.0,64,0.00,,,0.00,weatherlink.com 1.10,2013-08-25 00:42:00,
2013-08-24 20:57:00,59.4,48.0,30.34,NE,43,0.0,1.0,65,0.00,,,0.00,weatherlink.com 1.10,2013-08-25 00:57:00,
2013-08-24 21:12:00,59.0,47.0,30.34,NE,44,0.0,1.0,64,0.00,,,0.00,weatherlink.com 1.10,2013-08-25 01:12:00,
2013-08-24 21:27:00,59.5,46.0,30.35,NE,43,0.0,1.0,62,0.00,,,0.00,weatherlink.com 1.10,2013-08-25 01:27:00,
2013-08-24 21:42:00,59.4,46.0,30.35,NE,50,1.0,1.0,62,0.00,,,0.00,weatherlink.com 1.10,2013-08-25 01:42:00,
2013-08-24 21:57:00,59.5,45.0,30.35,NE,50,0.0,1.0,59,0.00,,,0.00,weatherlink.com 1.10,2013-08-25 01:57:00,
2013-08-24 22:12:00,59.4,46.0,30.35,ENE,77,1.0,1.0,61,0.00,,,0.00,weatherlink.com 1.10,2013-08-25 02:12:00,
2013-08-24 22:27:00,59.2,45.0,30.35,ENE,77,0.0,1.0,60,0.00,,,0.00,weatherlink.com 1.10,2013-08-25 02:27:00,
2013-08-24 22:42:00,59.0,45.0,30.35,ENE,77,0.0,43.0,61,0.00,,,0.00,weatherlink.com 1.10,2013-08-25 02:42:00,
2013-08-24 22:57:00,59.0,47.0,30.35,ENE,77,0.0,1.0,64,0.00,,,0.00,weatherlink.com 1.10,2013-08-25 02:57:00,
2013-08-24 23:12:00,58.4,46.0,30.35,ENE,77,0.0,1.0,63,0.00,,,0.00,weatherlink.com 1.10,2013-08-25 03:12:00,
2013-08-24 23:27:00,58.8,47.0,30.35,ENE,77,1.0,1.0,64,0.00,,,0.00,weatherlink.com 1.10,2013-08-25 03:27:00,
2013-08-24 23:42:00,58.6,47.0,30.36,ENE,77,0.0,1.0,66,0.00,,,0.00,weatherlink.com 1.10,2013-08-25 03:42:00,
2013-08-24 23:57:00,58.7,46.0,30.35,East,96,0.0,1.0,64,0.00,,,0.00,weatherlink.com 1.10,2013-08-25 03:57:00,